Time,TemperatureF,DewpointF,PressureIn,WindDirection,WindDirectionDegrees,WindSpeedMPH,WindSpeedGustMPH,Humidity,HourlyPrecipIn,Conditions,Clouds,dailyrainin,SoftwareType,DateUTC
2013-05-20 00:03:00,57.0,57.0,30.21,West,281,0.0,0.0,99,0.00,,,0.66,,2013-05-20 04:03:00,
2013-05-20 00:13:00,57.0,57.0,30.21,West,281,0.0,0.0,99,0.00,,,0.66,,2013-05-20 04:13:00,
2013-05-20 00:23:00,57.0,57.0,30.20,West,281,0.0,0.0,99,0.00,,,0.66,,2013-05-20 04:23:00,
2013-05-20 00:33:00,57.0,57.0,30.19,West,281,0.0,0.0,99,0.00,,,1.32,,2013-05-20 04:33:00,
2013-05-20 00:42:00,57.0,57.0,30.19,West,281,0.0,0.0,99,0.00,,,1.32,,2013-05-20 04:42:00,
2013-05-20 00:52:00,57.0,57.0,30.19,West,281,0.0,0.0,99,0.00,,,1.32,,2013-05-20 04:52:00,
2013-05-20 01:02:00,57.0,57.0,30.18,West,281,0.0,0.0,99,0.00,,,0.66,,2013-05-20 05:02:00,
2013-05-20 01:12:00,57.0,57.0,30.18,West,281,0.0,0.0,99,0.00,,,0.66,,2013-05-20 05:12:00,
2013-05-20 01:22:00,57.0,57.0,30.18,West,281,0.0,0.0,99,0.00,,,0.66,,2013-05-20 05:22:00,
2013-05-20 01:32:00,57.0,57.0,30.17,West,281,0.0,0.0,99,0.00,,,0.66,,2013-05-20 05:32:00,
2013-05-20 01:42:00,57.0,57.0,30.17,West,281,0.0,0.0,99,0.00,,,0.66,,2013-05-20 05:42:00,
2013-05-20 01:51:00,57.0,57.0,30.17,West,281,0.0,0.0,99,0.00,,,0.66,,2013-05-20 05:51:00,
2013-05-20 02:01:00,57.0,57.0,30.16,West,281,0.0,0.0,99,0.00,,,0.66,,2013-05-20 06:01:00,
2013-05-20 02:11:00,57.0,57.0,30.16,West,281,0.0,0.0,99,0.00,,,0.66,,2013-05-20 06:11:00,
2013-05-20 02:21:00,57.0,57.0,30.15,West,281,0.0,0.0,99,0.00,,,0.66,,2013-05-20 06:21:00,
2013-05-20 02:32:00,57.0,57.0,30.14,West,281,0.0,0.0,99,0.00,,,0.66,,2013-05-20 06:32:00,
2013-05-20 02:42:00,57.0,57.0,30.14,West,281,0.0,0.0,99,0.00,,,0.66,,2013-05-20 06:42:00,
2013-05-20 02:52:00,57.0,57.0,30.14,West,281,0.0,0.0,99,0.00,,,0.66,,2013-05-20 06:52:00,
2013-05-20 03:02:00,57.0,57.0,30.13,West,281,0.0,0.0,99,0.00,,,0.65,,2013-05-20 07:02:00,
2013-05-20 03:12:00,57.0,57.0,30.13,West,281,0.0,0.0,99,0.00,,,0.65,,2013-05-20 07:12:00,
2013-05-20 03:21:00,57.0,57.0,30.13,West,281,0.0,0.0,99,0.00,,,0.64,,2013-05-20 07:21:00,
2013-05-20 03:32:00,57.0,57.0,30.13,West,281,0.0,0.0,99,0.00,,,0.64,,2013-05-20 07:32:00,
2013-05-20 03:42:00,57.0,57.0,30.13,West,281,0.0,0.0,99,0.00,,,0.64,,2013-05-20 07:42:00,
2013-05-20 03:52:00,57.0,57.0,30.13,West,281,0.0,0.0,99,0.00,,,0.64,,2013-05-20 07:52:00,
2013-05-20 04:01:00,57.0,57.0,30.13,West,281,0.0,0.0,99,0.00,,,0.64,,2013-05-20 08:01:00,
2013-05-20 04:11:00,57.0,57.0,30.13,West,281,0.0,0.0,99,0.00,,,0.64,,2013-05-20 08:11:00,
2013-05-20 04:21:00,57.0,57.0,30.13,West,281,0.0,0.0,99,0.00,,,0.62,,2013-05-20 08:21:00,
2013-05-20 04:32:00,57.0,57.0,30.12,West,281,0.0,0.0,99,0.00,,,0.61,,2013-05-20 08:32:00,
2013-05-20 04:42:00,57.0,57.0,30.12,West,281,0.0,0.0,99,0.00,,,0.61,,2013-05-20 08:42:00,
2013-05-20 04:51:00,57.0,57.0,30.11,West,281,0.0,0.0,99,0.00,,,0.61,,2013-05-20 08:51:00,
2013-05-20 05:02:00,57.0,57.0,30.11,West,281,0.0,0.0,99,0.00,,,0.61,,2013-05-20 09:02:00,
2013-05-20 05:12:00,57.0,57.0,30.11,West,281,0.0,0.0,99,0.00,,,0.61,,2013-05-20 09:12:00,
2013-05-20 05:21:00,57.0,57.0,30.11,West,281,0.0,0.0,99,0.00,,,0.60,,2013-05-20 09:21:00,
2013-05-20 05:33:00,57.0,57.0,30.11,West,281,0.0,0.0,99,0.00,,,0.60,,2013-05-20 09:33:00,
2013-05-20 05:43:00,57.0,57.0,30.11,West,281,0.0,0.0,99,0.00,,,0.60,,2013-05-20 09:43:00,
2013-05-20 05:52:00,57.0,57.0,30.11,West,281,0.0,0.0,99,0.00,,,0.60,,2013-05-20 09:52:00,
2013-05-20 06:03:00,57.0,57.0,30.11,West,281,0.0,0.0,99,0.00,,,0.60,,2013-05-20 10:03:00,
2013-05-20 06:12:00,57.0,57.0,30.11,West,281,0.0,0.0,99,0.00,,,0.60,,2013-05-20 10:12:00,
2013-05-20 06:22:00,57.0,57.0,30.12,West,281,0.0,0.0,99,0.00,,,0.60,,2013-05-20 10:22:00,
2013-05-20 06:33:00,58.0,58.0,30.12,West,281,0.0,0.0,99,0.00,,,0.59,,2013-05-20 10:33:00,
2013-05-20 06:42:00,58.0,58.0,30.12,West,281,0.0,0.0,99,0.00,,,0.59,,2013-05-20 10:42:00,
2013-05-20 06:52:00,58.0,58.0,30.11,West,281,0.0,0.0,99,0.00,,,0.59,,2013-05-20 10:52:00,
2013-05-20 07:02:00,58.0,58.0,30.12,West,281,0.0,0.0,100,0.00,,,0.58,,2013-05-20 11:02:00,
2013-05-20 07:12:00,58.0,58.0,30.12,West,281,0.0,0.0,100,0.00,,,0.58,,2013-05-20 11:12:00,
2013-05-20 07:21:00,58.0,58.0,30.12,West,281,0.0,0.0,100,0.00,,,0.58,,2013-05-20 11:21:00,
2013-05-20 07:32:00,58.0,58.0,30.12,West,281,0.0,0.0,100,0.00,,,0.58,,2013-05-20 11:32:00,
2013-05-20 07:42:00,58.0,58.0,30.12,West,281,0.0,0.0,100,0.00,,,0.58,,2013-05-20 11:42:00,
2013-05-20 07:51:00,58.0,58.0,30.12,West,281,0.0,0.0,100,0.00,,,0.57,,2013-05-20 11:51:00,
2013-05-20 08:01:00,59.0,59.0,30.13,West,281,0.0,0.0,100,0.00,,,0.56,,2013-05-20 12:01:00,
2013-05-20 08:12:00,59.0,59.0,30.13,West,281,0.0,0.0,100,0.00,,,0.56,,2013-05-20 12:12:00,
2013-05-20 08:21:00,59.0,59.0,30.13,West,281,0.0,0.0,100,0.00,,,0.56,,2013-05-20 12:21:00,
2013-05-20 08:32:00,60.0,60.0,30.14,West,281,0.0,0.0,100,0.00,,,0.54,,2013-05-20 12:32:00,
2013-05-20 08:42:00,60.0,60.0,30.14,West,281,0.0,0.0,100,0.00,,,0.54,,2013-05-20 12:42:00,
2013-05-20 08:52:00,61.0,61.0,30.13,West,281,0.0,0.0,100,0.00,,,0.54,,2013-05-20 12:52:00,
2013-05-20 09:01:00,61.0,61.0,30.13,West,281,0.0,0.0,100,0.00,,,0.53,,2013-05-20 13:01:00,
2013-05-20 09:11:00,61.0,61.0,30.13,West,281,0.0,0.0,100,0.00,,,0.53,,2013-05-20 13:11:00,
2013-05-20 09:22:00,61.0,61.0,30.12,West,281,0.0,0.0,100,0.00,,,0.52,,2013-05-20 13:22:00,
2013-05-20 09:32:00,63.0,63.0,30.12,West,281,0.0,0.0,100,0.00,,,0.51,,2013-05-20 13:32:00,
2013-05-20 09:41:00,63.0,63.0,30.12,West,281,0.0,0.0,100,0.00,,,0.51,,2013-05-20 13:41:00,
2013-05-20 09:52:00,64.0,63.0,30.12,West,281,0.0,0.0,98,0.00,,,0.51,,2013-05-20 13:52:00,
2013-05-20 10:01:00,65.0,63.0,30.12,West,281,0.0,0.0,93,0.00,,,0.50,,2013-05-20 14:01:00,
2013-05-20 10:11:00,65.0,63.0,30.12,West,281,0.0,0.0,93,0.00,,,0.50,,2013-05-20 14:11:00,
2013-05-20 10:22:00,66.0,63.0,30.12,West,281,0.0,0.0,89,0.00,,,0.50,,2013-05-20 14:22:00,
2013-05-20 10:32:00,68.0,63.0,30.12,West,281,0.0,0.0,85,0.00,,,0.49,,2013-05-20 14:32:00,
2013-05-20 10:42:00,68.0,63.0,30.12,West,281,0.0,0.0,85,0.00,,,0.49,,2013-05-20 14:42:00,
2013-05-20 10:52:00,69.0,64.0,30.12,West,281,0.0,0.0,83,0.00,,,0.49,,2013-05-20 14:52:00,
2013-05-20 11:01:00,70.0,63.0,30.11,West,281,0.0,0.0,79,0.00,,,0.47,,2013-05-20 15:01:00,
2013-05-20 11:12:00,70.0,63.0,30.11,West,281,0.0,0.0,79,0.00,,,0.47,,2013-05-20 15:12:00,
2013-05-20 11:21:00,71.0,62.0,30.10,West,281,0.0,0.0,74,0.00,,,0.46,,2013-05-20 15:21:00,
2013-05-20 11:33:00,72.0,62.0,30.09,West,281,0.0,0.0,72,0.00,,,0.45,,2013-05-20 15:33:00,
2013-05-20 11:42:00,72.0,62.0,30.09,West,281,0.0,0.0,72,0.00,,,0.45,,2013-05-20 15:42:00,
2013-05-20 11:53:00,73.0,62.0,30.08,West,281,0.0,0.0,68,0.00,,,0.44,,2013-05-20 15:53:00,
2013-05-20 12:03:00,75.0,63.0,30.09,West,281,0.0,0.0,67,0.00,,,0.42,,2013-05-20 16:03:00,
2013-05-20 12:13:00,75.0,63.0,30.09,West,281,0.0,0.0,67,0.00,,,0.42,,2013-05-20 16:13:00,
2013-05-20 12:22:00,75.0,62.0,30.08,West,281,0.0,0.0,63,0.00,,,0.42,,2013-05-20 16:22:00,
2013-05-20 12:33:00,77.0,63.0,30.07,West,281,0.0,0.0,63,0.00,,,0.40,,2013-05-20 16:33:00,
2013-05-20 12:42:00,77.0,63.0,30.07,West,281,0.0,0.0,63,0.00,,,0.40,,2013-05-20 16:42:00,
2013-05-20 12:52:00,77.0,63.0,30.07,West,281,0.0,0.0,62,0.00,,,0.39,,2013-05-20 16:52:00,
2013-05-20 13:02:00,76.0,63.0,30.06,West,281,0.0,0.0,64,0.00,,,0.37,,2013-05-20 17:02:00,
2013-05-20 13:12:00,76.0,63.0,30.06,West,281,0.0,0.0,64,0.00,,,0.37,,2013-05-20 17:12:00,
2013-05-20 13:22:00,76.0,63.0,30.06,West,281,0.0,0.0,64,0.00,,,0.35,,2013-05-20 17:22:00,
2013-05-20 13:33:00,78.0,63.0,30.05,West,281,0.0,0.0,61,0.00,,,0.33,,2013-05-20 17:33:00,
2013-05-20 13:45:00,78.0,63.0,30.05,West,281,0.0,0.0,61,0.00,,,0.33,,2013-05-20 17:45:00,
2013-05-20 13:53:00,78.0,62.0,30.05,West,281,0.0,0.0,59,0.00,,,0.32,,2013-05-20 17:53:00,
2013-05-20 14:02:00,76.0,62.0,30.04,West,281,0.0,0.0,62,0.00,,,0.30,,2013-05-20 18:02:00,
2013-05-20 14:12:00,76.0,62.0,30.04,West,281,0.0,0.0,62,0.00,,,0.30,,2013-05-20 18:12:00,
2013-05-20 14:23:00,77.0,62.0,30.04,West,281,0.0,0.0,60,0.00,,,0.29,,2013-05-20 18:23:00,
2013-05-20 14:32:00,78.0,62.0,30.04,West,281,0.0,0.0,59,0.00,,,0.27,,2013-05-20 18:32:00,
2013-05-20 14:42:00,78.0,62.0,30.04,West,281,0.0,0.0,59,0.00,,,0.27,,2013-05-20 18:42:00,
2013-05-20 14:55:00,78.0,63.0,30.04,West,281,0.0,0.0,60,0.00,,,0.26,,2013-05-20 18:55:00,
2013-05-20 15:04:00,78.0,62.0,30.04,West,281,0.0,0.0,59,0.00,,,0.23,,2013-05-20 19:04:00,
2013-05-20 15:11:00,78.0,62.0,30.04,West,281,0.0,0.0,59,0.00,,,0.23,,2013-05-20 19:11:00,
2013-05-20 15:21:00,79.0,62.0,30.04,West,281,0.0,0.0,56,0.00,,,0.22,,2013-05-20 19:21:00,
2013-05-20 15:32:00,79.0,63.0,30.03,West,281,0.0,0.0,58,0.00,,,0.20,,2013-05-20 19:32:00,
2013-05-20 15:42:00,79.0,63.0,30.03,West,281,0.0,0.0,58,0.00,,,0.20,,2013-05-20 19:42:00,
2013-05-20 15:52:00,80.0,62.0,30.03,West,281,0.0,0.0,54,0.00,,,0.20,,2013-05-20 19:52:00,
2013-05-20 16:01:00,80.0,61.0,30.02,West,281,0.0,0.0,53,0.00,,,0.17,,2013-05-20 20:01:00,
2013-05-20 16:12:00,80.0,61.0,30.02,West,281,0.0,0.0,53,0.00,,,0.17,,2013-05-20 20:12:00,
2013-05-20 16:21:00,80.0,62.0,30.01,West,281,0.0,0.0,54,0.00,,,0.16,,2013-05-20 20:21:00,
2013-05-20 16:32:00,81.0,63.0,30.01,WSW,249,0.0,0.0,54,0.00,,,0.14,,2013-05-20 20:32:00,
2013-05-20 16:42:00,80.0,62.0,30.01,WSW,249,0.0,0.0,55,0.00,,,0.13,,2013-05-20 20:42:00,
2013-05-20 16:51:00,80.0,62.0,30.01,WSW,249,0.0,0.0,55,0.00,,,0.13,,2013-05-20 20:51:00,
2013-05-20 17:01:00,80.0,62.0,30.00,WSW,249,0.0,0.0,55,0.00,,,0.12,,2013-05-20 21:01:00,
2013-05-20 17:11:00,80.0,62.0,30.00,WSW,249,0.0,0.0,55,0.00,,,0.12,,2013-05-20 21:11:00,
2013-05-20 17:21:00,80.0,62.0,30.00,WSW,249,0.0,0.0,54,0.00,,,0.11,,2013-05-20 21:21:00,
2013-05-20 17:33:00,80.0,62.0,30.00,WSW,249,0.0,0.0,55,0.00,,,0.10,,2013-05-20 21:33:00,
2013-05-20 17:43:00,80.0,62.0,30.00,WSW,249,0.0,0.0,55,0.00,,,0.09,,2013-05-20 21:43:00,
2013-05-20 17:53:00,80.0,62.0,30.00,WSW,249,0.0,0.0,55,0.00,,,0.09,,2013-05-20 21:53:00,
2013-05-20 18:02:00,80.0,63.0,30.00,WSW,249,0.0,0.0,56,0.00,,,0.07,,2013-05-20 22:02:00,
2013-05-20 18:13:00,80.0,63.0,30.00,WSW,249,0.0,0.0,56,0.00,,,0.07,,2013-05-20 22:13:00,
2013-05-20 18:23:00,80.0,63.0,30.00,WSW,249,0.0,0.0,56,0.00,,,0.07,,2013-05-20 22:23:00,
2013-05-20 18:33:00,79.0,62.0,29.99,WSW,249,0.0,0.0,57,0.00,,,0.05,,2013-05-20 22:33:00,
2013-05-20 18:42:00,79.0,62.0,29.99,WSW,249,0.0,0.0,57,0.00,,,0.05,,2013-05-20 22:42:00,
2013-05-20 18:52:00,79.0,63.0,29.99,SW,217,0.0,0.0,58,0.00,,,0.05,,2013-05-20 22:52:00,
2013-05-20 19:03:00,78.0,62.0,30.00,SW,217,0.0,0.0,58,0.00,,,0.04,,2013-05-20 23:03:00,
2013-05-20 19:12:00,78.0,62.0,30.00,SW,217,0.0,0.0,58,0.00,,,0.04,,2013-05-20 23:12:00,
2013-05-20 19:22:00,78.0,63.0,30.00,SW,217,0.0,0.0,60,0.00,,,0.04,,2013-05-20 23:22:00,
2013-05-20 19:32:00,78.0,63.0,30.01,SW,217,0.0,0.0,61,0.00,,,0.02,,2013-05-20 23:32:00,
2013-05-20 19:42:00,78.0,63.0,30.01,SW,217,0.0,0.0,61,0.00,,,0.02,,2013-05-20 23:42:00,
2013-05-20 19:52:00,77.0,63.0,30.00,SW,217,0.0,0.0,62,0.00,,,0.02,,2013-05-20 23:52:00,
2013-05-20 20:01:00,76.0,63.0,29.99,SW,217,0.0,0.0,64,0.00,,,0.02,,2013-05-21 00:01:00,
2013-05-20 20:11:00,76.0,63.0,29.99,SW,217,0.0,0.0,64,0.00,,,0.02,,2013-05-21 00:11:00,
2013-05-20 20:21:00,76.0,64.0,29.99,SW,217,0.0,0.0,66,0.00,,,0.01,,2013-05-21 00:21:00,
2013-05-20 20:32:00,74.0,63.0,30.00,SW,217,0.0,0.0,69,0.00,,,0.01,,2013-05-21 00:32:00,
2013-05-20 20:42:00,74.0,64.0,30.00,SW,217,0.0,0.0,70,0.00,,,0.01,,2013-05-21 00:42:00,
2013-05-20 20:52:00,74.0,64.0,30.00,SW,217,0.0,0.0,70,0.00,,,0.01,,2013-05-21 00:52:00,
2013-05-20 21:01:00,73.0,64.0,30.01,SW,217,0.0,0.0,73,0.00,,,0.01,,2013-05-21 01:01:00,
2013-05-20 21:11:00,73.0,64.0,30.01,SW,217,0.0,0.0,73,0.00,,,0.01,,2013-05-21 01:11:00,
2013-05-20 21:22:00,72.0,64.0,30.01,SW,217,0.0,0.0,75,0.00,,,0.01,,2013-05-21 01:22:00,
2013-05-20 21:32:00,71.0,63.0,30.02,SW,217,0.0,0.0,77,0.00,,,0.01,,2013-05-21 01:32:00,
2013-05-20 21:42:00,71.0,63.0,30.02,SW,217,0.0,0.0,77,0.00,,,0.01,,2013-05-21 01:42:00,
2013-05-20 21:52:00,70.0,64.0,30.02,SW,217,0.0,0.0,81,0.00,,,0.01,,2013-05-21 01:52:00,
2013-05-20 22:02:00,70.0,64.0,30.02,SW,217,0.0,0.0,82,0.00,,,0.00,,2013-05-21 02:02:00,
2013-05-20 22:11:00,70.0,64.0,30.02,SW,217,0.0,0.0,82,0.00,,,0.00,,2013-05-21 02:11:00,
2013-05-20 22:21:00,69.0,64.0,30.02,SW,217,0.0,0.0,83,0.00,,,0.00,,2013-05-21 02:21:00,
2013-05-20 22:32:00,68.0,64.0,30.01,SW,217,0.0,0.0,86,0.00,,,0.00,,2013-05-21 02:32:00,
2013-05-20 22:42:00,68.0,64.0,30.01,SW,217,0.0,0.0,87,0.00,,,0.00,,2013-05-21 02:42:00,
2013-05-20 22:52:00,68.0,64.0,30.01,SW,217,0.0,0.0,87,0.00,,,0.00,,2013-05-21 02:52:00,
2013-05-20 23:02:00,67.0,63.0,30.00,SW,217,0.0,0.0,88,0.00,,,0.00,,2013-05-21 03:02:00,
2013-05-20 23:11:00,67.0,63.0,30.00,SW,217,0.0,0.0,88,0.00,,,0.00,,2013-05-21 03:11:00,
2013-05-20 23:21:00,67.0,64.0,30.01,SW,217,0.0,0.0,89,0.00,,,0.00,,2013-05-21 03:21:00,
2013-05-20 23:33:00,66.0,63.0,30.00,SW,217,0.0,0.0,91,0.00,,,0.00,,2013-05-21 03:33:00,
2013-05-20 23:43:00,66.0,63.0,30.00,SW,217,0.0,0.0,91,0.00,,,0.00,,2013-05-21 03:43:00,
2013-05-20 23:53:00,66.0,63.0,30.00,SW,217,0.0,0.0,91,0.00,,,0.00,,2013-05-21 03:53:00,